Preview of NWS' New Version of Forecast
This preview is not operational and should not be used for support decisions.

Regional Weather Roundup (RWR)

Issued by National Weather Service (NWS)

                            
000
ASUS43 KTOP 201208
RWRKS 

WEATHER ROUNDUP FOR KANSAS
NATIONAL WEATHER SERVICE GOODLAND KS
700 AM CDT TUE AUG 20 2019

NOTE:  "FAIR" INDICATES FEW OR NO CLOUDS BELOW 12,000 FEET WITH NO
SIGNIFICANT WEATHER AND/OR OBSTRUCTIONS TO VISIBILITY.

KSZ001>006-013>018-027>032-041>047-201300-
NORTHWEST KANSAS
  
CITY           SKY/WX    TMP DP  RH WIND       PRES   REMARKS
GOODLAND       CLEAR     62  57  83 S7        30.00S                  
6HR MIN TEMP:  60; 6HR MAX TEMP:  78;                                

HAYS           CLEAR     72  68  87 S6        29.86S                  
HILL CITY      CLEAR     71  66  84 SW3       29.95S                  
6HR MIN TEMP:  70; 6HR MAX TEMP:  78; 6HR PCP: TRACE;                

RUSSELL        CLEAR     76  68  76 S13       29.93F                  
6HR MIN TEMP:  76; 6HR MAX TEMP:  80;                                

$$

KSZ061>065-074>080-084>089-201300-
SOUTHWEST KANSAS
  
CITY           SKY/WX    TMP DP  RH WIND       PRES   REMARKS
DODGE CITY     CLEAR     77  64  64 S12       30.00R                  
6HR MIN TEMP:  77; 6HR MAX TEMP:  86;                                

ELKHART        CLEAR     73  61  65 SW16      30.05S                  
GARDEN CITY    CLEAR     69  62  78 SE8       30.00R                  
6HR MIN TEMP:  69; 6HR MAX TEMP:  78;                                

GREAT BEND     CLEAR     76  68  76 S9        29.97S                  
LIBERAL        CLEAR     77  64  64 S6        30.02R                  
PRATT          CLEAR     77  66  70 S12       30.00S                  
6HR MIN TEMP:  75; 6HR MAX TEMP:  84;                                

$$

KSZ066>073-081>083-090>101-201300-
SOUTHEAST KANSAS
  
CITY           SKY/WX    TMP DP  RH WIND       PRES   REMARKS
CHANUTE        CLEAR     78  73  84 S7        29.99R                  
6HR MIN TEMP:  77; 6HR MAX TEMP:  80;                                

COFFEYVILLE    CLEAR     75  73  93 CALM      29.97S                  
6HR MIN TEMP:  75; 6HR MAX TEMP:  80;                                

HUTCHINSON     CLEAR     77  69  76 S6        29.97S                  
6HR MIN TEMP:  77; 6HR MAX TEMP:  84;                                

MEDICINE LODGE   N/A     77  69  76 SE9       29.98S                  
NEWTON           N/A     78  70  76 S14       29.98S                  
PARSONS        CLEAR     76  74  93 S3        30.00R                  
6HR MIN TEMP:  75; 6HR MAX TEMP:  81;                                

WICHITA INTL   PTCLDY    77  69  76 S8        29.97S                  
6HR MIN TEMP:  77; 6HR MAX TEMP:  83;                                

WICHITA JABRA  CLEAR     80  69  69 S13       29.97S                  
6HR MIN TEMP:  80; 6HR MAX TEMP:  83;                                

WICHITA MCCONL CLEAR     77  67  70 S10       29.98S                  
$$

KSZ007>012-019>026-033>040-048>060-102>105-201300-
NORTHEAST KANSAS
  
CITY           SKY/WX    TMP DP  RH WIND       PRES   REMARKS
CONCORDIA      CLEAR     81  71  71 SW17G28   29.91R                  
6HR MIN TEMP:  81; 6HR MAX TEMP:  84;                                

EMPORIA        CLEAR     75  72  90 S5        29.97R                  
6HR MIN TEMP:  75; 6HR MAX TEMP:  80;                                

LAWRENCE       CLEAR     80  73  79 CALM      29.96R                  
6HR MIN TEMP:  79; 6HR MAX TEMP:  83;                                

MANHATTAN      CLEAR     78  72  81 SW8       29.93R                  
6HR MIN TEMP:  78; 6HR MAX TEMP:  83;                                

MARYSVILLE     CLEAR     79  72  78 SW5       29.93R                  
OLATHE IND     CLEAR     78  72  81 S8        29.98R                  
6HR MIN TEMP:  77; 6HR MAX TEMP:  80;                                

OLATHE EXE     CLEAR     76  73  91 S7        29.98R                  
6HR MIN TEMP:  76; 6HR MAX TEMP:  79;                                

SALINA         CLEAR     80  69  69 S14       29.93R                  
6HR MIN TEMP:  80; 6HR MAX TEMP:  82;                                

TOPEKA BILLARD CLEAR     80  71  74 S6        29.94R                  
6HR MIN TEMP:  80; 6HR MAX TEMP:  83;                                

TOPEKA FORBES  CLEAR     79  72  79 S8        29.96R                  
6HR MIN TEMP:  79; 6HR MAX TEMP:  81;                                

$$